W4TL Weather Reports


Display with metric or nautical units.
time (UTC)temp
F
wind
direction
speed
MPH
gust
MPH
rain 1hr
in
rain 24hr
in
rain mn
in
humidity
%
barometer
mb
20260504090117 40 0 0.0 0.0 0.00 0.00 0.00 97 1018.7
20260504081548 41 244 0.0 0.0 0.00 0.00 0.00 96 1018.6
20260504044600 45 0 0.0 0.0 0.00 0.00 0.00 92 1018.9
20260504043051 45 0 0.0 0.0 0.00 0.00 0.00 90 1019.0
20260504041553 46 0 0.0 1.0 0.00 0.00 0.00 90 1019.1
20260504040049 46 0 0.0 0.0 0.00 0.00 0.00 89 1019.2
20260504034554 46 0 0.0 1.0 0.00 0.00 0.00 88 1019.1
20260504033054 47 0 0.0 1.0 0.00 0.00 0.00 87 1019.3
20260504031551 48 0 0.0 0.0 0.00 0.00 0.00 86 1019.3
20260504030048 48 0 0.0 0.0 0.00 0.00 0.00 84 1019.1
20260504024550 49 0 0.0 0.0 0.00 0.00 0.00 82 1019.2
20260504023051 50 0 0.0 0.0 0.00 0.00 0.00 80 1019.2
20260504021553 50 0 0.0 0.0 0.00 0.00 0.00 79 1018.9
20260504020051 51 0 0.0 0.0 0.00 0.00 0.00 77 1018.8
20260504014552 53 0 0.0 0.0 0.00 0.00 0.00 73 1018.5
20260504013052 54 0 0.0 0.0 0.00 0.00 0.00 70 1018.4
20260504011550 55 0 0.0 0.0 0.00 0.00 0.00 67 1018.4
20260504010100 56 0 0.0 0.0 0.00 0.00 0.00 65 1018.2
20260504004553 58 0 0.0 0.0 0.00 0.00 0.00 60 1018.0
20260504003052 60 0 0.0 0.0 0.00 0.00 0.00 56 1017.9
20260504001610 63 0 0.0 1.0 0.00 0.00 0.00 49 1017.7
20260504000052 64 0 0.0 2.0 0.00 0.00 0.00 45 1017.7
20260503234550 65 0 1.0 3.0 0.00 0.00 0.00 42 1017.5
20260503233050 66 279 1.0 5.0 0.00 0.00 0.00 41 1017.5
20260503231550 67 0 0.0 7.0 0.00 0.00 0.00 42 1017.5
20260503230046 68 182 0.0 7.0 0.00 0.00 0.00 38 1017.6
20260503224547 69 334 0.0 5.0 0.00 0.00 0.00 37 1017.7
20260503223050 70 244 1.0 7.0 0.00 0.00 0.00 35 1017.7
20260503221551 70 0 1.0 8.0 0.00 0.00 0.00 36 1017.7
20260503220108 71 237 1.0 5.0 0.00 0.00 0.00 36 1017.6
20260503214547 71 15 1.0 9.0 0.00 0.00 0.00 37 1017.7
20260503213050 71 311 0.0 5.0 0.00 0.00 0.00 38 1017.8
20260503211601 71 49 2.0 8.0 0.00 0.00 0.00 37 1017.9
20260503210056 71 131 2.0 9.0 0.00 0.00 0.00 36 1017.9
20260503204554 71 352 1.0 7.0 0.00 0.00 0.00 39 1018.0
20260503203049 71 168 2.0 6.0 0.00 0.00 0.00 37 1018.2
20260503201549 72 277 0.0 5.0 0.00 0.00 0.00 37 1018.4
20260503200056 73 42 2.0 6.0 0.00 0.00 0.00 38 1018.8
20260503194555 72 246 1.0 7.0 0.00 0.00 0.00 41 1019.1
20260503193113 71 335 1.0 9.0 0.00 0.00 0.00 44 1019.3
20260503191551 70 317 1.0 6.0 0.00 0.00 0.00 41 1019.5
20260503190049 69 34 1.0 6.0 0.00 0.00 0.00 47 1019.7
20260503184557 69 340 1.0 5.0 0.00 0.00 0.00 42 1019.9
20260503183104 69 281 1.0 9.0 0.00 0.00 0.00 42 1020.0
20260503181618 68 191 1.0 6.0 0.00 0.00 0.00 40 1020.2
20260503180124 67 284 2.0 7.0 0.00 0.00 0.00 43 1020.4
20260503174557 67 360 2.0 9.0 0.00 0.00 0.00 39 1020.4
20260503173058 67 148 1.0 7.0 0.00 0.00 0.00 40 1020.6
20260503171549 67 242 1.0 4.0 0.00 0.00 0.00 43 1020.8
20260503120105 39 0 0.0 0.0 0.00 0.00 0.00 98 1021.0